Time,TemperatureF,DewpointF,PressureIn,WindDirection,WindDirectionDegrees,WindSpeedMPH,WindSpeedGustMPH,Humidity,HourlyPrecipIn,Conditions,Clouds,dailyrainin,SoftwareType,DateUTC
2013-07-24 00:13:00,78.5,75.7,29.85,SSW,205,0.0,0.0,91,0.00,,,0.00,VWS V14.01,2013-07-24 05:13:00,
2013-07-24 00:28:00,77.9,75.7,29.85,SSE,150,0.0,0.0,93,0.00,,,0.00,VWS V14.01,2013-07-24 05:28:00,
2013-07-24 00:43:00,77.3,75.1,29.85,SSE,150,0.0,0.0,93,0.00,,,0.00,VWS V14.01,2013-07-24 05:43:00,
2013-07-24 00:58:00,76.8,74.9,29.85,SSE,152,0.0,0.0,94,0.00,,,0.00,VWS V14.01,2013-07-24 05:58:00,
2013-07-24 01:13:00,76.4,74.9,29.85,SSE,150,0.0,0.0,95,0.00,,,0.00,VWS V14.01,2013-07-24 06:13:00,
2013-07-24 01:28:00,76.2,74.7,29.85,SSE,151,0.0,0.0,95,0.00,,,0.00,VWS V14.01,2013-07-24 06:28:00,
2013-07-24 01:43:00,75.7,74.2,29.85,SSE,150,0.0,0.0,95,0.00,,,0.00,VWS V14.01,2013-07-24 06:43:00,
2013-07-24 01:58:00,75.9,74.7,29.84,SSE,153,0.0,0.0,96,0.00,,,0.00,VWS V14.01,2013-07-24 06:58:00,
2013-07-24 02:13:00,75.9,74.7,29.85,South,173,0.0,0.0,96,0.00,,,0.00,VWS V14.01,2013-07-24 07:13:00,
2013-07-24 02:28:00,75.6,74.4,29.85,South,173,0.0,0.0,96,0.00,,,0.00,VWS V14.01,2013-07-24 07:28:00,
2013-07-24 02:43:00,75.3,74.1,29.84,SSW,195,1.1,2.3,96,0.00,,,0.00,VWS V14.01,2013-07-24 07:43:00,
2013-07-24 02:58:00,75.3,74.1,29.85,South,190,0.0,1.1,96,0.00,,,0.00,VWS V14.01,2013-07-24 07:58:00,
2013-07-24 03:13:00,75.1,73.9,29.85,South,190,0.0,0.0,96,0.00,,,0.00,VWS V14.01,2013-07-24 08:13:00,
2013-07-24 03:28:00,74.9,73.7,29.85,South,190,0.0,0.0,96,0.00,,,0.00,VWS V14.01,2013-07-24 08:28:00,
2013-07-24 03:43:00,74.7,73.5,29.84,South,190,0.0,0.0,96,0.00,,,0.00,VWS V14.01,2013-07-24 08:43:00,
2013-07-24 03:58:00,74.9,73.7,29.84,South,169,0.0,0.0,96,0.00,,,0.00,VWS V14.01,2013-07-24 08:58:00,
2013-07-24 04:13:00,75.0,74.1,29.84,South,169,0.0,0.0,97,0.00,,,0.00,VWS V14.01,2013-07-24 09:13:00,
2013-07-24 04:28:00,74.8,73.9,29.84,South,169,0.0,0.0,97,0.00,,,0.00,VWS V14.01,2013-07-24 09:28:00,
2013-07-24 04:43:00,74.9,74.0,29.84,SSE,158,0.0,0.0,97,0.00,,,0.00,VWS V14.01,2013-07-24 09:43:00,
2013-07-24 04:58:00,74.6,73.7,29.84,SSE,158,0.0,0.0,97,0.00,,,0.00,VWS V14.01,2013-07-24 09:58:00,
2013-07-24 05:13:00,74.6,73.7,29.85,SSW,193,0.0,1.1,97,0.00,,,0.00,VWS V14.01,2013-07-24 10:13:00,
2013-07-24 05:28:00,74.3,73.1,29.85,SSW,193,0.0,0.0,96,0.00,,,0.00,VWS V14.01,2013-07-24 10:28:00,
2013-07-24 05:43:00,74.1,72.9,29.86,SSE,152,0.0,0.0,96,0.00,,,0.00,VWS V14.01,2013-07-24 10:43:00,
2013-07-24 05:58:00,74.1,72.9,29.86,SSE,152,0.0,0.0,96,0.00,,,0.00,VWS V14.01,2013-07-24 10:58:00,
2013-07-24 06:13:00,74.0,72.8,29.86,SSE,153,0.0,0.0,96,0.00,,,0.00,VWS V14.01,2013-07-24 11:13:00,
2013-07-24 06:28:00,74.0,72.8,29.87,SSE,152,0.0,0.0,96,0.00,,,0.00,VWS V14.01,2013-07-24 11:28:00,
2013-07-24 06:43:00,74.6,73.7,29.86,South,179,0.0,1.1,97,0.00,,,0.00,VWS V14.01,2013-07-24 11:43:00,
2013-07-24 06:58:00,74.9,73.7,29.87,SSW,194,0.0,1.1,96,0.00,,,0.00,VWS V14.01,2013-07-24 11:58:00,
2013-07-24 07:13:00,75.1,73.9,29.87,SSW,193,1.1,3.4,96,0.00,,,0.00,VWS V14.01,2013-07-24 12:13:00,
2013-07-24 07:28:00,75.3,74.1,29.87,SSW,208,1.1,2.3,96,0.00,,,0.00,VWS V14.01,2013-07-24 12:28:00,
2013-07-24 07:43:00,75.7,74.5,29.88,South,191,1.1,2.3,96,0.00,,,0.00,VWS V14.01,2013-07-24 12:43:00,
2013-07-24 07:58:00,76.2,74.7,29.88,SSE,161,0.0,3.4,95,0.00,,,0.00,VWS V14.01,2013-07-24 12:58:00,
2013-07-24 08:13:00,76.7,74.5,29.88,SSW,208,0.0,2.3,93,0.00,,,0.00,VWS V14.01,2013-07-24 13:13:00,
2013-07-24 08:28:00,77.5,75.0,29.88,SSW,208,0.0,2.3,92,0.00,,,0.00,VWS V14.01,2013-07-24 13:28:00,
2013-07-24 08:43:00,78.1,73.9,29.88,WSW,239,0.0,2.3,87,0.00,,,0.00,VWS V14.01,2013-07-24 13:43:00,
2013-07-24 08:58:00,79.0,73.8,29.88,SSW,210,0.0,2.3,84,0.00,,,0.00,VWS V14.01,2013-07-24 13:58:00,
2013-07-24 09:13:00,80.1,73.8,29.88,WSW,257,0.0,3.4,81,0.00,,,0.00,VWS V14.01,2013-07-24 14:13:00,
2013-07-24 09:28:00,81.2,74.1,29.88,North,355,1.1,2.3,79,0.00,,,0.00,VWS V14.01,2013-07-24 14:28:00,
2013-07-24 09:43:00,82.5,74.6,29.89,West,271,0.0,2.3,77,0.00,,,0.00,VWS V14.01,2013-07-24 14:43:00,
2013-07-24 09:58:00,84.2,75.4,29.89,SSW,208,0.0,4.6,75,0.00,,,0.00,VWS V14.01,2013-07-24 14:58:00,
2013-07-24 10:13:00,85.4,74.9,29.88,West,262,1.1,1.1,71,0.00,,,0.00,VWS V14.01,2013-07-24 15:13:00,
2013-07-24 10:28:00,86.5,73.8,29.89,NE,43,0.0,2.3,66,0.00,,,0.00,VWS V14.01,2013-07-24 15:28:00,
2013-07-24 10:43:00,85.9,74.1,29.89,North,8,0.0,4.6,68,0.00,,,0.00,VWS V14.01,2013-07-24 15:43:00,
2013-07-24 10:58:00,86.4,72.8,29.90,SW,229,0.0,1.1,64,0.00,,,0.00,VWS V14.01,2013-07-24 15:58:00,
2013-07-24 11:13:00,87.1,73.4,29.90,West,260,0.0,1.1,64,0.00,,,0.00,VWS V14.01,2013-07-24 16:13:00,
2013-07-24 11:28:00,85.0,72.8,29.90,SW,235,0.0,3.4,67,0.00,,,0.00,VWS V14.01,2013-07-24 16:28:00,
2013-07-24 11:43:00,85.5,73.3,29.90,West,273,2.3,2.3,67,0.00,,,0.00,VWS V14.01,2013-07-24 16:43:00,
2013-07-24 11:58:00,85.5,73.7,29.89,SE,133,0.0,4.6,68,0.00,,,0.00,VWS V14.01,2013-07-24 16:58:00,
2013-07-24 12:13:00,84.6,74.2,29.90,WSW,249,0.0,6.9,71,0.00,,,0.00,VWS V14.01,2013-07-24 17:13:00,
2013-07-24 12:28:00,84.1,73.7,29.90,WSW,256,0.0,6.9,71,0.00,,,0.00,VWS V14.01,2013-07-24 17:28:00,
2013-07-24 12:43:00,84.1,73.7,29.90,WSW,248,0.0,5.8,71,0.00,,,0.00,VWS V14.01,2013-07-24 17:43:00,
2013-07-24 12:58:00,84.5,74.5,29.90,WSW,255,1.1,3.4,72,0.00,,,0.00,VWS V14.01,2013-07-24 17:58:00,
2013-07-24 13:13:00,85.9,75.0,29.90,West,277,0.0,4.6,70,0.00,,,0.00,VWS V14.01,2013-07-24 18:13:00,
2013-07-24 13:28:00,86.0,75.5,29.89,West,281,0.0,1.1,71,0.00,,,0.00,VWS V14.01,2013-07-24 18:28:00,
2013-07-24 13:43:00,86.8,74.5,29.89,South,171,1.1,3.4,67,0.00,,,0.00,VWS V14.01,2013-07-24 18:43:00,
2013-07-24 13:58:00,86.4,74.6,29.89,East,99,0.0,4.6,68,0.00,,,0.00,VWS V14.01,2013-07-24 18:58:00,
2013-07-24 14:13:00,85.8,74.5,29.89,North,11,0.0,3.4,69,0.00,,,0.00,VWS V14.01,2013-07-24 19:13:00,
2013-07-24 14:28:00,84.0,73.6,29.89,NW,320,0.0,2.3,71,0.00,,,0.00,VWS V14.01,2013-07-24 19:28:00,
2013-07-24 14:43:00,84.3,74.3,29.89,NNE,13,0.0,4.6,72,0.00,,,0.00,VWS V14.01,2013-07-24 19:43:00,
2013-07-24 14:58:00,85.3,74.0,29.89,NNW,343,1.1,4.6,69,0.00,,,0.00,VWS V14.01,2013-07-24 19:58:00,
2013-07-24 15:13:00,83.7,74.1,29.88,NNW,328,0.0,6.9,73,0.00,,,0.00,VWS V14.01,2013-07-24 20:13:00,
2013-07-24 15:28:00,84.8,73.5,29.88,NW,309,0.0,4.6,69,0.00,,,0.00,VWS V14.01,2013-07-24 20:28:00,
2013-07-24 15:43:00,85.3,74.4,29.87,WNW,288,0.0,4.6,70,0.00,,,0.00,VWS V14.01,2013-07-24 20:43:00,
2013-07-24 15:58:00,87.0,74.7,29.87,ENE,77,0.0,3.4,67,0.00,,,0.00,VWS V14.01,2013-07-24 20:58:00,
2013-07-24 16:13:00,86.0,72.9,29.87,NW,321,0.0,3.4,65,0.00,,,0.00,VWS V14.01,2013-07-24 21:13:00,
2013-07-24 16:28:00,84.3,73.0,29.87,NNW,345,1.1,6.9,69,0.00,,,0.00,VWS V14.01,2013-07-24 21:28:00,
2013-07-24 16:43:00,85.3,74.4,29.86,North,5,0.0,5.8,70,0.00,,,0.00,VWS V14.01,2013-07-24 21:43:00,
2013-07-24 16:58:00,84.2,74.2,29.87,North,359,0.0,4.6,72,0.00,,,0.00,VWS V14.01,2013-07-24 21:58:00,
2013-07-24 17:13:00,84.3,74.3,29.87,NNW,332,1.1,4.6,72,0.00,,,0.00,VWS V14.01,2013-07-24 22:13:00,
2013-07-24 17:28:00,82.9,73.8,29.87,NW,309,0.0,4.6,74,0.00,,,0.00,VWS V14.01,2013-07-24 22:28:00,
2013-07-24 17:43:00,83.2,74.1,29.87,SE,135,0.0,4.6,74,0.00,,,0.00,VWS V14.01,2013-07-24 22:43:00,
2013-07-24 17:58:00,83.6,74.0,29.87,WSW,249,0.0,3.4,73,0.00,,,0.00,VWS V14.01,2013-07-24 22:58:00,
2013-07-24 18:13:00,83.6,73.6,29.87,WSW,243,0.0,2.3,72,0.00,,,0.00,VWS V14.01,2013-07-24 23:13:00,
2013-07-24 18:28:00,83.3,73.3,29.87,East,96,3.4,4.6,72,0.00,,,0.00,VWS V14.01,2013-07-24 23:28:00,
2013-07-24 18:43:00,82.6,73.1,29.87,NNW,332,0.0,4.6,73,0.00,,,0.00,VWS V14.01,2013-07-24 23:43:00,
2013-07-24 18:58:00,82.0,73.3,29.88,NNW,333,0.0,3.4,75,0.00,,,0.00,VWS V14.01,2013-07-24 23:58:00,
2013-07-24 19:13:00,81.4,72.7,29.88,NW,311,0.0,2.3,75,0.00,,,0.00,VWS V14.01,2013-07-25 00:13:00,
2013-07-24 19:28:00,80.8,72.5,29.88,North,4,0.0,2.3,76,0.00,,,0.00,VWS V14.01,2013-07-25 00:28:00,
2013-07-24 19:43:00,79.9,72.4,29.88,NNE,13,0.0,1.1,78,0.00,,,0.00,VWS V14.01,2013-07-25 00:43:00,
2013-07-24 19:58:00,79.1,72.0,29.88,East,80,0.0,1.1,79,0.00,,,0.00,VWS V14.01,2013-07-25 00:58:00,
2013-07-24 20:13:00,78.4,72.1,29.88,ENE,75,0.0,1.1,81,0.00,,,0.00,VWS V14.01,2013-07-25 01:13:00,
2013-07-24 20:28:00,77.9,72.3,29.89,ENE,75,0.0,1.1,83,0.00,,,0.00,VWS V14.01,2013-07-25 01:28:00,
2013-07-24 20:43:00,78.1,72.5,29.89,North,11,1.1,6.9,83,0.00,,,0.00,VWS V14.01,2013-07-25 01:43:00,
2013-07-24 20:58:00,78.1,72.5,29.90,NNE,30,3.4,3.4,83,0.00,,,0.00,VWS V14.01,2013-07-25 01:58:00,
2013-07-24 21:13:00,77.9,72.3,29.90,ENE,63,0.0,3.4,83,0.00,,,0.00,VWS V14.01,2013-07-25 02:13:00,
2013-07-24 21:28:00,77.6,72.0,29.91,NW,321,0.0,6.9,83,0.00,,,0.00,VWS V14.01,2013-07-25 02:28:00,
2013-07-24 21:43:00,77.5,71.6,29.92,West,278,0.0,4.6,82,0.00,,,0.00,VWS V14.01,2013-07-25 02:43:00,
2013-07-24 21:58:00,77.2,71.6,29.93,NNE,15,0.0,5.8,83,0.00,,,0.00,VWS V14.01,2013-07-25 02:58:00,
2013-07-24 22:13:00,76.8,71.2,29.93,ENE,77,0.0,3.4,83,0.00,,,0.00,VWS V14.01,2013-07-25 03:13:00,
2013-07-24 22:28:00,76.7,71.2,29.94,NE,44,0.0,4.6,83,0.00,,,0.00,VWS V14.01,2013-07-25 03:28:00,
2013-07-24 22:43:00,76.6,70.7,29.94,NNW,345,0.0,4.6,82,0.00,,,0.00,VWS V14.01,2013-07-25 03:43:00,
2013-07-24 23:13:00,75.8,69.9,29.94,NE,50,0.0,2.3,82,0.00,,,0.00,VWS V14.01,2013-07-25 04:13:00,
2013-07-24 23:28:00,75.4,69.5,29.94,West,281,0.0,3.4,82,0.00,,,0.00,VWS V14.01,2013-07-25 04:28:00,
2013-07-24 23:43:00,75.0,68.8,29.94,ESE,120,0.0,2.3,81,0.00,,,0.00,VWS V14.01,2013-07-25 04:43:00,
2013-07-24 23:58:00,74.6,68.4,29.94,NW,311,0.0,5.8,81,0.00,,,0.00,VWS V14.01,2013-07-25 04:58:00,